Tracking 35275 objects as of 9-Sep-2026
HD Live streaming from Space Station
objects crossing your sky now

STARLINK-11712

Track STARLINK-11712 now!
10-day predictions
STARLINK-11712 is classified as:


NORAD ID: 64135
Int'l Code: 2025-111N
Launch date: May 24, 2025
Source: United States (US)
Launch site: AIR FORCE EASTERN TEST RANGE (AFETR)
Your satellite tracking list
Your tracking list is empty




NASA's NSSDC Master Catalog

Two Line Element Set (TLE):
1 64135U 25111N   26251.23032973  .00167338  00000-0  12774-2 0  9995
2 64135  43.0002 313.9439 0001576 251.7400 108.3296 15.70917284 75342
Source of the keplerian elements: AFSPC